Regional Weather Roundup
Issued by NWS Bismarck, ND

Home | Current Version | Previous Version | Text Only | Print | Product List | Glossary On
Versions: 1 2 3 4 5 6 7 8 9 10 11 12 13 14 15 16 17 18 19 20 21 22 23 24 25 26 27 28 29 30 31 32 33 34 35 36 37 38 39 40 41 42 43 44 45 46 47 48 49 50
417
ASUS43 KBIS 031302
RWRBIS

NWR BROADCAST TEXT
NATIONAL WEATHER SERVICE BISMARCK ND
800 AM CDT TUE MAY 03 2016

NOTE: "FAIR" INDICATES FEW OR NO CLOUDS BELOW 12,000 FEET WITH NO
SIGNIFICANT WEATHER AND/OR OBSTRUCTIONS TO VISIBILITY.


CITY           SKY/WX    TMP DP  RH WIND       PRES   REMARKS
WILLISTON      FAIR      46  38  73 CALM      30.05R
MINOT          FAIR      59  31  34 W15       29.97R
MINOT AFB      NOT AVBL
BISMARCK       FAIR      47  40  76 W7        30.01S
DICKINSON      FAIR      45  37  73 W7        30.03R
GARRISON         N/A     47  36  65 CALM      29.99S
HETTINGER ARPT FAIR      42  36  79 W3        30.07R
JAMESTOWN      FAIR      50  44  80 W10       29.93F
CARRINGTON     FAIR      52  45  76 W14       29.95F
OAKES            N/A    N/A N/A N/A MISG        N/A
STANLEY        FAIR      50  36  57 NW9       30.04R
$$

CITY           SKY/WX    TMP DP  RH WIND       PRES   REMARKS
GRAND FORKS    PTSUNNY   57  38  48 W15       29.84F
GRAND FORKS AF NOT AVBL
DEVILS LAKE    FAIR      52  42  69 NW13      29.92S
FARGO          FAIR      50  40  68 SW12      29.91S
CAVALIER       FAIR      55  37  50 N18G25    29.87R
GRAFTON        FAIR      57  39  51 NW17G25   29.86S
GWINNER        FAIR      46  43  87 W10       29.96S
LANGDON        FAIR      54  37  54 NW15      29.90S
$$

CITY           SKY/WX    TMP DP  RH WIND       PRES   REMARKS
ABERDEEN       FAIR      41  38  89 SW6       29.99F
MOBRIDGE       FAIR      47  44  90 CALM      30.00R
BUFFALO          N/A     41  33  73 W5        30.01R
RAPID CITY     FAIR      45  34  65 NW9       30.09R
GLASGOW        FAIR      46  40  79 NW6       30.07R
SIDNEY         FAIR      43  36  75 S5        30.07R
WOLF POINT     FAIR      44  39  82 CALM      30.08R
GLENDIVE       FAIR      46  37  71 S3        30.10R
MILES CITY     FAIR      49  42  77 SW6       30.09R
BAKER          FAIR      43  37  79 CALM      30.09R
$$

CITY           SKY/WX    TMP DP  RH WIND       PRES   REMARKS
BILLINGS       FAIR      47  35  63 SW12      30.16R
GREAT FALLS    FAIR      41  35  79 SW6       30.12R
$$





USA.gov is the U.S. government's official web portal to all federal, state and local government web resources and services.